H1 CPF 2 NER 2025 10 29 9 302 01 glonass127 H2 1106403 9127 37869 2025 10 29 0 0 0 2025 11 1 23 45 0 900 1 1 0 0 0 1 H9 10 0 60977 0.00000 0 2243503.809 15123372.663 20489735.863 10 0 60977 900.00000 0 342597.711 13353263.558 21797541.900 10 0 60977 1800.00000 0 -1791871.717 11647882.011 22684834.817 10 0 60977 2700.00000 0 -4115833.574 10060607.559 23134435.654 10 0 60977 3600.00000 0 -6575870.675 8636621.034 23137546.167 10 0 60977 4500.00000 0 -9111195.386 7411138.157 22693924.049 10 0 60977 5400.00000 0 -11655941.129 6408069.756 21811901.384 10 0 60977 6300.00000 0 -14141678.057 5639163.577 20508244.997 10 0 60977 7200.00000 0 -16500051.841 5103663.534 18807859.642 10 0 60977 8100.00000 0 -18665438.876 4788501.480 16743337.450 10 0 60977 9000.00000 0 -20577509.620 4669015.030 14354359.642 10 0 60977 9900.00000 0 -22183594.464 4710163.380 11686959.221 10 0 60977 10800.00000 0 -23440753.512 4868192.199 8792656.163 10 0 60977 11700.00000 0 -24317462.875 5092679.545 5727479.452 10 0 60977 12600.00000 0 -24794845.000 5328877.992 2550893.085 10 0 60977 13500.00000 0 -24867388.997 5520254.802 -675354.161 10 0 60977 14400.00000 0 -24543127.918 5611122.460 -3888433.240 10 0 60977 15300.00000 0 -23843262.804 5549246.989 -7025669.551 10 0 60977 16200.00000 0 -22801246.991 5288321.363 -10025782.585 10 0 60977 17100.00000 0 -21461367.556 4790196.289 -12830104.464 10 0 60977 18000.00000 0 -19876882.897 4026770.386 -15383751.230 10 0 60977 18900.00000 0 -18107795.034 2981456.124 -17636721.563 10 0 60977 19800.00000 0 -16218351.438 1650156.012 -19544898.984 10 0 60977 20700.00000 0 -14274383.301 41704.778 -21070935.707 10 0 60977 21600.00000 0 -12340594.333 -1822243.460 -22184999.040 10 0 60977 22500.00000 0 -10477916.306 -3907879.789 -22865364.437 10 0 60977 23400.00000 0 -8741044.516 -6170429.480 -23098842.861 10 0 60977 24300.00000 0 -7176258.130 -8555815.201 -22881034.000 10 0 60977 25200.00000 0 -5819617.637 -11002723.783 -22216400.798 10 0 60977 26100.00000 0 -4695614.890 -13444988.507 -21118164.812 10 0 60977 27000.00000 0 -3816331.205 -15814185.602 -19608025.807 10 0 60977 27900.00000 0 -3181136.770 -18042334.786 -17715712.738 10 0 60977 28800.00000 0 -2776941.125 -20064589.688 -15478376.782 10 0 60977 29700.00000 0 -2578980.755 -21821805.012 -12939840.292 10 0 60977 30600.00000 0 -2552106.982 -23262873.163 -10149718.244 10 0 60977 31500.00000 0 -2652516.291 -24346733.452 -7162431.219 10 0 60977 32400.00000 0 -2829846.916 -25043971.458 -4036130.756 10 0 60977 33300.00000 0 -3029550.569 -25337943.926 -831559.253 10 0 60977 34200.00000 0 -3195437.427 -25225384.900 2389132.499 10 0 60977 35100.00000 0 -3272285.978 -24716470.714 5563586.847 10 0 60977 36000.00000 0 -3208407.603 -23834344.086 8630436.791 10 0 60977 36900.00000 0 -2958058.431 -22614119.796 11530476.979 10 0 60977 37800.00000 0 -2483598.223 -21101415.533 14207786.900 10 0 60977 38700.00000 0 -1757307.073 -19350470.401 16610786.350 10 0 60977 39600.00000 0 -762785.296 -17421929.893 18693204.933 10 0 60977 40500.00000 0 504120.827 -15380388.944 20414949.292 10 0 60977 41400.00000 0 2034905.370 -13291793.802 21742853.758 10 0 60977 42300.00000 0 3808518.374 -11220808.625 22651302.117 10 0 60977 43200.00000 0 5792006.762 -9228253.569 23122710.412 10 0 60977 44100.00000 0 7941655.642 -7368718.039 23147862.715 10 0 60977 45000.00000 0 10204585.020 -5688445.678 22726093.997 10 0 60977 45900.00000 0 12520738.755 -4223576.830 21865316.380 10 0 60977 46800.00000 0 14825186.600 -2998820.084 20581887.268 10 0 60977 47700.00000 0 17050647.153 -2026607.624 18900320.234 10 0 60977 48600.00000 0 19130129.960 -1306769.788 16852841.923 10 0 60977 49500.00000 0 20999589.354 -826743.438 14478800.851 10 0 60977 50400.00000 0 22600480.982 -562307.048 11823936.691 10 0 60977 51300.00000 0 23882114.876 -478813.590 8939521.418 10 0 60977 52200.00000 0 24803706.165 -532871.383 5881386.524 10 0 60977 53100.00000 0 25336035.933 -674403.744 2708853.319 10 0 60977 54000.00000 0 25462650.250 -849001.606 -516414.047 10 0 60977 54900.00000 0 25180544.075 -1000469.897 -3731610.932 10 0 60977 55800.00000 0 24500298.276 -1073459.214 -6874025.998 10 0 60977 56700.00000 0 23445661.124 -1016069.675 -9882281.180 10 0 60977 57600.00000 0 22052589.565 -782314.119 -12697551.869 10 0 60977 58500.00000 0 20367789.113 -334333.140 -15264741.130 10 0 60977 59400.00000 0 18446813.204 355735.339 -17533582.594 10 0 60977 60300.00000 0 16351802.295 1304314.583 -19459648.003 10 0 60977 61200.00000 0 14148958.962 2515439.814 -21005237.417 10 0 60977 62100.00000 0 11905866.852 3980343.949 -22140132.854 10 0 60977 63000.00000 0 9688768.115 5677597.658 -22842199.273 10 0 60977 63900.00000 0 7559915.654 7573798.845 -23097820.363 10 0 60977 64800.00000 0 5575112.919 9624782.654 -22902160.487 10 0 60977 65700.00000 0 3781545.427 11777300.548 -22259248.046 10 0 60977 66600.00000 0 2215995.145 13971096.703 -21181879.586 10 0 60977 67500.00000 0 903511.788 16141293.038 -19691347.853 10 0 60977 68400.00000 0 -143404.954 18220981.244 -17817000.790 10 0 60977 69300.00000 0 -925080.590 20143911.648 -15595641.978 10 0 60977 70200.00000 0 -1454390.155 21847165.161 -13070786.230 10 0 60977 71100.00000 0 -1755947.037 23273695.960 -10291786.811 10 0 60977 72000.00000 0 -1864794.301 24374638.538 -7312853.217 10 0 60977 72900.00000 0 -1824657.323 25111283.522 -4191980.269 10 0 60977 73800.00000 0 -1685834.594 25456641.204 -989810.665 10 0 60977 74700.00000 0 -1502818.132 25396529.522 2231545.967 10 0 60977 75600.00000 0 -1331745.493 24930143.616 5409714.208 10 0 60977 76500.00000 0 -1227791.555 24070085.819 8483251.063 10 0 60977 77400.00000 0 -1242609.796 22841857.381 11392818.743 10 0 60977 78300.00000 0 -1421929.943 21282835.279 14082310.637 10 0 60977 79200.00000 0 -1803411.568 19440778.185 16499910.503 10 0 60977 80100.00000 0 -2414842.120 17371924.489 18599066.545 10 0 60977 81000.00000 0 -3272753.382 15138761.175 20339363.989 10 0 60977 81900.00000 0 -4381513.020 12807555.110 21687281.708 10 0 60977 82800.00000 0 -5732928.614 10445747.272 22616820.566 10 0 60977 83700.00000 0 -7306380.904 8119315.536 23109993.205 10 0 60977 84600.00000 0 -9069481.836 5890212.493 23157167.181 10 0 60977 85500.00000 0 -10979231.956 3813981.784 22757255.429 10 0 60978 0.00000 0 -12983631.582 1937649.428 21917750.334 10 0 60978 900.00000 0 -15023683.033 297974.719 20654599.292 10 0 60978 1800.00000 0 -17035701.354 -1079865.333 18991923.711 10 0 60978 2700.00000 0 -18953844.216 -2183106.986 16961583.125 10 0 60978 3600.00000 0 -20712755.741 -3011708.515 14602591.171 10 0 60978 4500.00000 0 -22250217.029 -3578123.669 11960391.538 10 0 60978 5400.00000 0 -23509693.515 -3906547.462 9086005.155 10 0 60978 6300.00000 0 -24442672.521 -4031664.093 6035062.692 10 0 60978 7200.00000 0 -25010691.817 -3996947.849 2866739.260 10 0 60978 8100.00000 0 -25186971.964 -3852587.286 -357389.214 10 0 60978 9000.00000 0 -24957580.982 -3653119.643 -3574546.099 10 0 60978 9900.00000 0 -24322079.126 -3454875.719 -6721986.860 10 0 60978 10800.00000 0 -23293613.403 -3313344.502 -9738239.305 10 0 60978 11700.00000 0 -21898454.931 -3280571.176 -12564325.340 10 0 60978 12600.00000 0 -20174996.389 -3402701.482 -15144938.062 10 0 60978 13500.00000 0 -18172250.362 -3717779.661 -17429548.734 10 0 60978 14400.00000 0 -15947911.301 -4253896.624 -19373419.569 10 0 60978 15300.00000 0 -13566063.057 -5027769.904 -20938500.221 10 0 60978 16200.00000 0 -11094629.506 -6043818.244 -22094188.582 10 0 60978 17100.00000 0 -8602676.950 -7293772.007 -22817939.657 10 0 60978 18000.00000 0 -6157683.377 -8756837.159 -23095709.792 10 0 60978 18900.00000 0 -3822890.743 -10400406.345 -22922227.382 10 0 60978 19800.00000 0 -1654852.500 -12181286.743 -22301085.155 10 0 60978 20700.00000 0 298720.323 -14047391.984 -21244653.099 10 0 60978 21600.00000 0 2000724.597 -15939825.457 -19773815.081 10 0 60978 22500.00000 0 3425969.447 -17795265.724 -17917535.946 10 0 60978 23400.00000 0 4561967.030 -19548552.075 -15712269.425 10 0 60978 24300.00000 0 5409179.585 -21135360.216 -13201220.449 10 0 60978 25200.00000 0 5980716.048 -22494854.805 -10433478.180 10 0 60978 26100.00000 0 6301494.912 -23572207.136 -7463038.631 10 0 60978 27000.00000 0 6406912.503 -24320872.732 -4347737.531 10 0 60978 27900.00000 0 6341076.415 -24704534.404 -1148115.543 10 0 60978 28800.00000 0 6154681.574 -24698631.015 2073761.144 10 0 60978 29700.00000 0 5902620.705 -24291410.076 5255501.552 10 0 60978 30600.00000 0 5641431.275 -23484462.523 8335588.836 10 0 60978 31500.00000 0 5426686.834 -22292719.699 11254554.834 10 0 60978 32400.00000 0 5310442.127 -20743914.769 13956108.807 10 0 60978 33300.00000 0 5338838.256 -18877532.578 16388200.334 10 0 60978 34200.00000 0 5549966.857 -16743292.550 18503997.937 10 0 60978 35100.00000 0 5972081.153 -14399227.655 20262766.943 10 0 60978 36000.00000 0 6622227.175 -11909438.332 21630632.086 10 0 60978 36900.00000 0 7505351.296 -9341612.807 22581212.368 10 0 60978 37800.00000 0 8613920.890 -6764414.166 23096117.832 10 0 60978 38700.00000 0 9928074.380 -4244839.550 23165300.055 10 0 60978 39600.00000 0 11416295.733 -1845657.902 22787250.202 10 0 60978 40500.00000 0 13036587.451 376970.488 21969040.755 10 0 60978 41400.00000 0 14738096.046 2375596.325 20726209.186 10 0 60978 42300.00000 0 16463125.490 4113220.036 19082484.179 10 0 60978 43200.00000 0 18149457.994 5564595.515 17069357.474 10 0 60978 44100.00000 0 19732888.328 6717044.661 14725506.904 10 0 60978 45000.00000 0 21149868.200 7570747.932 12096078.981 10 0 60978 45900.00000 0 22340151.582 8138497.382 9231842.102 10 0 60978 46800.00000 0 23249330.652 8444920.742 6188224.325 10 0 60978 47700.00000 0 23831155.232 8525207.282 3024252.454 10 0 60978 48600.00000 0 24049536.561 8423387.490 -198588.192 10 0 60978 49500.00000 0 23880148.490 8190238.027 -3417551.626 10 0 60978 50400.00000 0 23311555.479 7880900.167 -6569862.897 10 0 60978 51300.00000 0 22345816.413 7552313.006 -9593958.541 10 0 60978 52200.00000 0 20998535.460 7260571.551 -12430709.806 10 0 60978 53100.00000 0 19298354.958 7058323.847 -15024602.531 10 0 60978 54000.00000 0 17285909.552 6992320.210 -17324848.160 10 0 60978 54900.00000 0 15012284.336 7101221.505 -19286401.738 10 0 60978 55800.00000 0 12537041.566 7413762.393 -20870864.657 10 0 60978 56700.00000 0 9925899.387 7947350.077 -22047252.625 10 0 60978 57600.00000 0 7248161.216 8707160.038 -22792612.415 10 0 60978 58500.00000 0 4574005.238 9685768.492 -23092474.503 10 0 60978 59400.00000 0 1971749.244 10863337.715 -22941132.511 10 0 60978 60300.00000 0 -494793.191 12208346.263 -22341744.335 10 0 60978 61200.00000 0 -2768753.609 13678832.377 -21306253.862 10 0 60978 62100.00000 0 -4802344.333 15224096.678 -19855136.109 10 0 60978 63000.00000 0 -6558600.296 16786790.626 -18016972.403 10 0 60978 63900.00000 0 -8012655.765 18305300.856 -15827865.774 10 0 60978 64800.00000 0 -9152505.081 19716327.271 -13330710.002 10 0 60978 65700.00000 0 -9979218.856 20957545.011 -10574328.504 10 0 60978 66600.00000 0 -10506610.348 21970237.466 -7612501.836 10 0 60978 67500.00000 0 -10760370.080 22701789.432 -4502904.367 10 0 60978 68400.00000 0 -10776709.009 23107936.183 -1305972.223 10 0 60978 69300.00000 0 -10600570.830 23154675.152 1916274.564 10 0 60978 70200.00000 0 -10283491.496 22819761.731 5101432.329 10 0 60978 71100.00000 0 -9881198.047 22093728.580 8187913.369 10 0 60978 72000.00000 0 -9451048.802 20980387.915 11116122.212 10 0 60978 72900.00000 0 -9049422.664 19496797.829 13829587.075 10 0 60978 73800.00000 0 -8729166.486 17672695.667 16276026.418 10 0 60978 74700.00000 0 -8537206.234 15549423.033 18408332.050 10 0 60978 75600.00000 0 -8512420.348 13178387.368 20185452.244 10 0 60978 76500.00000 0 -8683862.488 10619123.287 21573160.242 10 0 60978 77400.00000 0 -9069406.404 7937032.574 22544695.569 10 0 60978 78300.00000 0 -9674868.496 5200894.211 23081267.741 10 0 60978 79200.00000 0 -10493644.344 2480244.662 23172414.026 10 0 60978 80100.00000 0 -11506874.946 -157266.199 22816205.039 10 0 60978 81000.00000 0 -12684137.195 -2648437.192 22019294.144 10 0 60978 81900.00000 0 -13984632.028 -4936892.633 20796808.858 10 0 60978 82800.00000 0 -15358823.526 -6975177.456 19172084.727 10 0 60978 83700.00000 0 -16750463.669 -8726485.085 17176244.614 10 0 60978 84600.00000 0 -18098921.219 -10165946.763 14847628.894 10 0 60978 85500.00000 0 -19341719.994 -11281428.197 12231084.709 10 0 60979 0.00000 0 -20417182.029 -12073799.138 9377125.538 10 0 60979 900.00000 0 -21267066.334 -12556663.295 6340973.274 10 0 60979 1800.00000 0 -21839090.806 -12755557.042 3181503.341 10 0 60979 2700.00000 0 -22089231.938 -12706650.147 -39893.087 10 0 60979 3600.00000 0 -21983701.728 -12455000.701 -3260504.316 10 0 60979 4500.00000 0 -21500516.045 -12052437.494 -6417528.705 10 0 60979 5400.00000 0 -20630584.719 -11555159.268 -9449315.220 10 0 60979 6300.00000 0 -19378273.777 -11021153.228 -12296588.086 10 0 60979 7200.00000 0 -17761412.763 -10507543.826 -14903629.351 10 0 60979 8100.00000 0 -15810744.074 -10067986.419 -17219393.839 10 0 60979 9000.00000 0 -13568835.500 -9750219.001 -19198532.244 10 0 60979 9900.00000 0 -11088500.693 -9593878.579 -20802300.020 10 0 60979 10800.00000 0 -8430793.803 -9628677.401 -21999332.420 10 0 60979 11700.00000 0 -5662663.106 -9873018.455 -22766269.060 10 0 60979 12600.00000 0 -2854363.284 -10333110.426 -23088214.946 10 0 60979 13500.00000 0 -76736.281 -11002620.315 -22959028.674 10 0 60979 14400.00000 0 2601523.922 -11862878.377 -22381432.485 10 0 60979 15300.00000 0 5116506.991 -12883625.880 -21366942.849 10 0 60979 16200.00000 0 7411511.520 -14024272.657 -19935624.222 10 0 60979 17100.00000 0 9439158.717 -15235609.466 -18115672.385 10 0 60979 18000.00000 0 11163107.109 -16461900.765 -15942837.403 10 0 60979 18900.00000 0 12559298.546 -17643267.528 -13459699.434 10 0 60979 19800.00000 0 13616686.158 -18718257.828 -10714813.528 10 0 60979 20700.00000 0 14337417.226 -19626495.441 -7761742.026 10 0 60979 21600.00000 0 14736467.206 -20311294.176 -4657995.117 10 0 60979 22500.00000 0 14840744.266 -20722127.791 -1463901.513 10 0 60979 23400.00000 0 14687705.703 -20816852.227 1758567.747 10 0 60979 24300.00000 0 14323547.721 -20563588.009 4946999.086 10 0 60979 25200.00000 0 13801047.129 -19942185.490 8039736.564 10 0 60979 26100.00000 0 13177147.335 -18945213.436 10977059.836 10 0 60979 27000.00000 0 12510390.662 -17578431.504 13702318.282 10 0 60979 27900.00000 0 11858304.503 -15860728.500 16163001.179 10 0 60979 28800.00000 0 11274849.820 -13823530.099 18311725.283 10 0 60979 29700.00000 0 10808037.245 -11509701.086 20107123.175 10 0 60979 30600.00000 0 10497808.551 -8971987.299 21514617.655 10 0 60979 31500.00000 0 10374270.132 -6271060.617 22507069.528 10 0 60979 32400.00000 0 10456350.674 -3473245.923 23065288.232 10 0 60979 33300.00000 0 10750937.981 -648021.380 23178396.885 10 0 60979 34200.00000 0 11252530.809 2134607.638 22844045.434 10 0 60979 35100.00000 0 11943420.829 4806755.590 22068467.768 10 0 60979 36000.00000 0 12794398.706 7305218.273 20866380.855 10 0 60979 36900.00000 0 13765957.047 9573845.222 19260726.289 10 0 60979 37800.00000 0 14809942.731 11565626.474 17282257.062 10 0 60979 38700.00000 0 15871592.456 13244407.982 14968974.879 10 0 60979 39600.00000 0 16891869.001 14586164.291 12365426.104 10 0 60979 40500.00000 0 17810002.512 15579774.603 9521867.144 10 0 60979 41400.00000 0 18566131.506 16227268.305 6493312.911 10 0 60979 42300.00000 0 19103932.941 16543527.722 3338484.879 10 0 60979 43200.00000 0 19373129.919 16555458.569 118677.810 10 0 60979 44100.00000 0 19331769.515 16300661.172 -3103433.331 10 0 60979 45000.00000 0 18948171.943 15825657.149 -6265022.729 10 0 60979 45900.00000 0 18202465.441 15183745.812 -9304354.328 10 0 60979 46800.00000 0 17087638.362 14432581.122 -12162007.821 10 0 60979 47700.00000 0 15610060.442 13631572.799 -14782063.848 10 0 60979 48600.00000 0 13789447.976 12839223.409 -17113222.844 10 0 60979 49500.00000 0 11658271.724 12110516.535 -19109833.216 10 0 60979 50400.00000 0 9260630.747 11494469.252 -20732806.376 10 0 60979 51300.00000 0 6650638.665 11031955.104 -21950398.841 10 0 60979 52200.00000 0 3890390.142 10753891.953 -22738844.611 10 0 60979 53100.00000 0 1047593.706 10679873.081 -23082824.549 10 0 60979 54000.00000 0 -1807028.649 10817300.300 -22975763.297 10 0 60979 54900.00000 0 -4602464.777 11161055.837 -22419948.184 10 0 60979 55800.00000 0 -7270143.259 11693726.091 -21426468.627 10 0 60979 56700.00000 0 -9746556.723 12386366.312 -20014978.457 10 0 60979 57600.00000 0 -11975667.588 13199771.908 -18213287.425 10 0 60979 58500.00000 0 -13910996.113 14086200.262 -16056791.715 10 0 60979 59400.00000 0 -15517304.771 14991467.935 -13587756.599 10 0 60979 60300.00000 0 -16771810.733 15857332.407 -10854467.186 10 0 60979 61200.00000 0 -17664878.620 16624055.945 -7910265.802 10 0 60979 62100.00000 0 -18200168.099 17233042.053 -4812496.448 10 0 60979 63000.00000 0 -18394233.929 17629432.733 -1621378.276 10 0 60979 63900.00000 0 -18275599.110 17764557.141 1601168.963 10 0 60979 64800.00000 0 -17883343.533 17598129.320 4792724.188 10 0 60979 65700.00000 0 -17265270.349 17100103.895 7891565.780 10 0 60979 66600.00000 0 -16475729.117 16252113.497 10837851.177 10 0 60979 67500.00000 0 -15573188.276 15048429.419 13574753.682 10 0 60979 68400.00000 0 -14617658.924 13496406.966 16049536.200 10 0 60979 69300.00000 0 -13668077.141 11616398.135 18214543.243 10 0 60979 70200.00000 0 -12779752.933 9441135.876 20028094.440 10 0 60979 71100.00000 0 -12001990.548 7014615.361 21455264.758 10 0 60979 72000.00000 0 -11375977.376 4390517.702 22468538.673 10 0 60979 72900.00000 0 -10933027.511 1630239.601 23048327.658 10 0 60979 73800.00000 0 -10693251.628 -1199392.052 23183342.454 10 0 60979 74700.00000 0 -10664707.643 -4028629.147 22870813.716 10 0 60979 75600.00000 0 -10843067.450 -6787434.387 22116556.773 10 0 60979 76500.00000 0 -11211814.371 -9408130.777 20934878.476 10 0 60979 77400.00000 0 -11742964.626 -11827961.706 19348326.388 10 0 60979 78300.00000 0 -12398284.910 -13991457.749 17387283.013 10 0 60979 79200.00000 0 -13130957.740 -15852513.342 15089410.261 10 0 60979 80100.00000 0 -13887627.468 -17376087.389 12498952.105 10 0 60979 81000.00000 0 -14610743.513 -18539456.448 9665906.084 10 0 60979 81900.00000 0 -15241104.100 -19332966.866 6645077.177 10 0 60979 82800.00000 0 -15720494.361 -19760252.485 3495030.386 10 0 60979 83700.00000 0 -15994307.442 -19837906.579 276961.024 10 0 60979 84600.00000 0 -16014036.802 -19594619.709 -2946495.929 10 0 60979 85500.00000 0 -15739532.203 -19069817.935 -6112493.923 10 0 60980 0.00000 0 -15140921.068 -18311857.753 -9159215.181 10 0 60980 900.00000 0 -14200110.067 -17375853.104 -12027099.037 10 0 60980 1800.00000 0 -12911800.573 -16321227.827 -14660028.047 10 0 60980 2700.00000 0 -11283970.470 -15209096.959 -17006451.740 10 0 60980 3600.00000 0 -9337799.574 -14099590.536 -19020419.451 10 0 60980 4500.00000 0 -7107039.197 -13049235.055 -20662501.386 10 0 60980 5400.00000 0 -4636850.903 -12108505.847 -21900577.659 10 0 60980 6300.00000 0 -1982162.675 -11319656.060 -22710478.391 10 0 60980 7200.00000 0 794388.246 -10714915.828 -23076461.402 10 0 60980 8100.00000 0 3624838.706 -10315138.744 -22991517.836 10 0 60980 9000.00000 0 6438508.063 -10128953.095 -22457499.969 10 0 60980 9900.00000 0 9164721.089 -10152453.038 -21485069.487 10 0 60980 10800.00000 0 11735530.224 -10369441.356 -20093468.446 10 0 60980 11700.00000 0 14088322.594 -10752211.380 -18310119.000 10 0 60980 12600.00000 0 16168202.627 -11262832.510 -16170061.521 10 0 60980 13500.00000 0 17930051.357 -11854882.199 -13715244.113 10 0 60980 14400.00000 0 19340177.797 -12475548.521 -10993679.342 10 0 60980 15300.00000 0 20377495.652 -13068012.038 -8058486.625 10 0 60980 16200.00000 0 21034179.107 -13574004.438 -4966840.649 10 0 60980 17100.00000 0 21315773.786 -13936434.673 -1778847.713 10 0 60980 18000.00000 0 21240761.869 -14101971.236 1443627.075 10 0 60980 18900.00000 0 20839603.228 -14023471.983 4638158.454 10 0 60980 19800.00000 0 20153295.963 -13662160.004 7742962.288 10 0 60980 20700.00000 0 19231519.194 -12989455.449 10698076.732 10 0 60980 21600.00000 0 18130437.578 -11988388.008 13446501.622 10 0 60980 22500.00000 0 16910260.206 -10654532.487 15935275.750 10 0 60980 23400.00000 0 15632655.705 -8996429.707 18116473.259 10 0 60980 24300.00000 0 14358130.504 -7035475.998 19948102.328 10 0 60980 25200.00000 0 13143477.890 -4805286.000 21394891.218 10 0 60980 26100.00000 0 12039402.104 -2350554.573 22428948.857 10 0 60980 27000.00000 0 11088414.189 274536.534 23030289.189 10 0 60980 27900.00000 0 10323085.156 3008303.554 23187210.695 10 0 60980 28800.00000 0 9764727.642 5783857.880 22896524.529 10 0 60980 29700.00000 0 9422560.064 8531623.791 22163626.962 10 0 60980 30600.00000 0 9293388.071 11181975.929 21002413.944 10 0 60980 31500.00000 0 9361817.376 13667890.428 19435037.961 10 0 60980 32400.00000 0 9600990.665 15927502.414 17491509.747 10 0 60980 33300.00000 0 9973819.885 17906465.554 15209149.917 10 0 60980 34200.00000 0 10434664.724 19560016.370 12631898.331 10 0 60980 35100.00000 0 10931389.219 20854657.238 9809491.743 10 0 60980 36000.00000 0 11407712.017 21769386.757 6796523.073 10 0 60980 36900.00000 0 11805752.615 22296424.204 3651398.552 10 0 60980 37800.00000 0 12068666.581 22441395.460 435211.588 10 0 60980 38700.00000 0 12143257.822 22222970.179 -2789445.380 10 0 60980 39600.00000 0 11982455.762 21671963.199 -5959707.659 10 0 60980 40500.00000 0 11547550.065 20829936.327 -9013678.835 10 0 60980 41400.00000 0 10810085.052 19747358.408 -11891659.240 10 0 60980 42300.00000 0 9753329.982 18481401.167 -14537336.215 10 0 60980 43200.00000 0 8373259.324 17093464.572 -16898910.497 10 0 60980 44100.00000 0 6678998.142 15646537.652 -18930134.286 10 0 60980 45000.00000 0 4692710.963 14202508.272 -20591238.313 10 0 60980 45900.00000 0 2448936.720 12819537.679 -21849727.823 10 0 60980 46800.00000 0 -6603.439 11549612.909 -22681030.384 10 0 60980 47700.00000 0 -2618675.663 10436382.221 -23068981.849 10 0 60980 48600.00000 0 -5324609.685 9513366.167 -23006140.646 10 0 60980 49500.00000 0 -8056693.823 8802620.215 -22493924.423 10 0 60980 50400.00000 0 -10744786.972 8313904.920 -21542567.141 10 0 60980 51300.00000 0 -13319036.914 8044397.346 -20170898.647 10 0 60980 52200.00000 0 -15712590.061 7978953.819 -18405952.617 10 0 60980 53100.00000 0 -17864178.647 8090910.196 -16282412.338 10 0 60980 54000.00000 0 -19720477.207 8343382.823 -13841907.141 10 0 60980 54900.00000 0 -21238130.626 8691012.077 -11132175.206 10 0 60980 55800.00000 0 -22385370.523 9082071.866 -8206111.038 10 0 60980 56700.00000 0 -23143154.756 9460853.420 -5120717.915 10 0 60980 57600.00000 0 -23505785.338 9770220.781 -1935987.130 10 0 60980 58500.00000 0 -23480982.236 9954228.899 1286273.054 10 0 60980 59400.00000 0 -23089413.442 9960693.501 4483635.452 10 0 60980 60300.00000 0 -22363704.253 9743604.765 7594255.730 10 0 60980 61200.00000 0 -21346969.981 9265284.194 10558055.153 10 0 60980 62100.00000 0 -20090935.560 8498195.406 13317862.538 10 0 60980 63000.00000 0 -18653721.803 7426334.478 15820495.034 10 0 60980 63900.00000 0 -17097390.982 6046143.033 18017758.864 10 0 60980 64800.00000 0 -15485353.432 4366907.040 19867353.097 10 0 60980 65700.00000 0 -13879741.737 2410625.104 21333661.478 10 0 60980 66600.00000 0 -12338859.774 211351.452 22388419.333 10 0 60980 67500.00000 0 -10914810.345 -2185960.301 23011244.748 10 0 60980 68400.00000 0 -9651397.671 -4727066.624 23190025.285 10 0 60980 69300.00000 0 -8582389.870 -7350432.813 22921153.600 10 0 60980 70200.00000 0 -7730212.182 -9989541.409 22209607.529 10 0 60980 71100.00000 0 -7105124.514 -12575418.155 21068872.368 10 0 60980 72000.00000 0 -6704917.674 -15039274.118 19520705.383 10 0 60980 72900.00000 0 -6515141.818 -17315157.355 17594744.992 10 0 60980 73800.00000 0 -6509859.187 -19342506.241 15327969.577 10 0 60980 74700.00000 0 -6652891.641 -21068499.563 12764013.583 10 0 60980 75600.00000 0 -6899512.904 -22450105.763 9952351.319 10 0 60980 76500.00000 0 -7198516.449 -23455745.090 6947361.681 10 0 60980 77400.00000 0 -7494573.541 -24066493.495 3807289.891 10 0 60980 78300.00000 0 -7730782.773 -24276775.567 593124.968 10 0 60980 79200.00000 0 -7851303.322 -24094514.816 -2632585.893 10 0 60980 80100.00000 0 -7803959.367 -23540732.328 -5806962.767 10 0 60980 81000.00000 0 -7542703.414 -22648608.434 -8868033.431 10 0 60980 81900.00000 0 -7029831.259 -21462045.226 -11755963.011 10 0 60980 82800.00000 0 -6237851.407 -20033789.655 -14414246.668 10 0 60980 83700.00000 0 -5150926.135 -18423196.436 -16790839.665 10 0 60980 84600.00000 0 -3765819.629 -16693725.928 -18839200.243 10 0 60980 85500.00000 0 -2092310.027 -14910284.119 -20519222.585 99